Hickory, NC

12:36 PM EDT on May 29, 2017 (GMT -0400)
Hickory Regional

Weather History for KHKY - January, 2014

Change the Weather History Date:

Wednesday, January 8, 2014

  Actual Average Record
Temperature  
Mean Temperature 28 °F -  
Max Temperature 44 °F 44 °F 68 °F (1965)
Min Temperature 12 °F 27 °F 3 °F (1970)
Degree Days  
Heating Degree Days 37    
Moisture  
Dew Point 7 °F    
Average Humidity 45    
Maximum Humidity 77    
Minimum Humidity 24    
Precipitation  
Precipitation 0.00 in - - ()
Sea Level Pressure  
Sea Level Pressure 30.47 in    
Wind  
Wind Speed 1 mph (SW)    
Max Wind Speed 5 mph    
Max Gust Speed -    
Visibility 10 miles    
Events      
Averages and records for this station are not official NWS values.
T = Trace of Precipitation, MM = Missing Value Source: NWS Daily Summary

Daily Weather History Graph

Daily Weather History Graph

Search for Another Location

Airport or City:

Trip Planner

Search our weather history database for the weather conditions in past years. The results will help you decide how hot, cold, wet, or windy it might be!

Date:

Astronomy

Jan. 08, 2014 Rise Set
Actual Time 7:35 AM EST 5:28 PM EST
Civil Twilight 7:07 AM EST 5:57 PM EST
Nautical Twilight 6:36 AM EST 6:28 PM EST
Astronomical Twilight 6:05 AM EST 6:59 PM EST
Moon 12:14 PM EST (1/8) 12:47 AM EST (1/8)
Length of Visible Light 10h 49m
Length of Day
9h 52m
First Quarter, 56% of the Moon is Illuminated
Jan 8
First Quarter
Jan 15
Full
Jan 24
Last Quarter
Jan 30
New
Feb 6
First Quarter

Hourly Weather History & Observations

Time (EST) Temp. Windchill Dew Point Humidity Pressure Visibility Wind Dir Wind Speed Gust Speed Precip Events Conditions
12:53 AM 19.0 °F - 1.0 °F 46% 30.42 in 10.0 mi Calm Calm - N/A   Clear
1:53 AM 16.0 °F - 5.0 °F 62% 30.43 in 10.0 mi Calm Calm - N/A   Clear
2:53 AM 14.0 °F - 5.0 °F 67% 30.44 in 10.0 mi Calm Calm - N/A   Clear
3:53 AM 16.0 °F - 7.0 °F 68% 30.45 in 10.0 mi Calm Calm - N/A   Clear
4:53 AM 16.0 °F - 7.0 °F 68% 30.45 in 10.0 mi Calm Calm - N/A   Clear
5:53 AM 15.1 °F - 3.9 °F 61% 30.47 in 10.0 mi Calm Calm - N/A   Clear
6:53 AM 12.9 °F 6.9 °F 7.0 °F 77% 30.47 in 10.0 mi NNW 3.5 mph - N/A   Clear
7:53 AM 15.1 °F - 6.1 °F 68% 30.49 in 10.0 mi Calm Calm - N/A   Clear
8:53 AM 19.0 °F 12.3 °F 7.0 °F 59% 30.52 in 10.0 mi WNW 4.6 mph - N/A   Clear
9:53 AM 24.1 °F 19.7 °F 7.0 °F 48% 30.54 in 10.0 mi South 3.5 mph - N/A   Clear
10:53 AM 28.0 °F - 6.1 °F 39% 30.53 in 10.0 mi Calm Calm - N/A   Clear
11:53 AM 34.0 °F - 7.0 °F 32% 30.49 in 10.0 mi Calm Calm - N/A   Clear
12:53 PM 39.0 °F - 8.1 °F 28% 30.45 in 10.0 mi Calm Calm - N/A   Clear
1:53 PM 41.0 °F - 9.0 °F 27% 30.43 in 10.0 mi Calm Calm - N/A   Clear
2:53 PM 43.0 °F - 10.0 °F 26% 30.43 in 10.0 mi Calm Calm - N/A   Clear
3:53 PM 44.1 °F 41.5 °F 9.0 °F 24% 30.45 in 10.0 mi South 4.6 mph - N/A   Clear
4:53 PM 42.1 °F 39.2 °F 9.0 °F 26% 30.45 in 10.0 mi SSW 4.6 mph - N/A   Clear
5:53 PM 36.0 °F - 10.9 °F 36% 30.45 in 10.0 mi Calm Calm - N/A   Clear
6:53 PM 37.9 °F - 8.1 °F 29% 30.47 in 10.0 mi Calm Calm - N/A   Clear
7:53 PM 35.1 °F 32.2 °F 9.0 °F 34% 30.48 in 10.0 mi SSW 3.5 mph - N/A   Clear
8:53 PM 34.0 °F - 8.1 °F 34% 30.48 in 10.0 mi Calm Calm - N/A   Clear
9:53 PM 32.0 °F - 9.0 °F 38% 30.49 in 10.0 mi Calm Calm - N/A   Clear
10:53 PM 30.9 °F - 9.0 °F 40% 30.49 in 10.0 mi Calm Calm - N/A   Clear
11:53 PM 30.9 °F - 9.0 °F 40% 30.48 in 10.0 mi Calm Calm - N/A   Clear